Location: Bethel Springs Elementary School
(35.2348°N, 88.6084°W)
Time: 02:13:35
(UTC+00:00)

Daily predictions for brighter satellites

Satellite Brightness Start Highest point End
(mag) Time Altitude Azimuth Time Altitude Azimuth Time Altitude Azimuth
Cosmos 2239 Rocket 4.5 00:01:51 10° N 00:08:00 89° W 00:14:09 10° S
CZ-4C R/B 3.5 00:00:27 10° NW 00:08:01 70° WSW 00:16:21 10° SSE
NOSS 3-2 (A) 4.0 00:03:31 10° S 00:08:19 30° ESE 00:13:29 10° NE
CSL-04 Debris 4.3 00:03:45 10° SSE 00:08:59 51° ENE 00:14:16 10° N
Cosmos 2082 Rocket 3.9 00:06:38 10° NNE 00:09:18 13° NE 00:10:18 13° ENE
Cosmos 1356 3.4 00:07:20 10° S 00:10:45 89° W 00:14:12 10° N
Cosmos 1908 3.3 00:07:40 10° S 00:11:28 55° E 00:15:18 10° NNE
COSMOS 2406 3.5 00:09:39 10° N 00:15:12 46° ENE 00:20:40 10° SE
Cosmos 1821 Rocket 4.4 00:09:36 10° NNW 00:15:41 68° W 00:21:47 10° S
Cosmos 1605 Rocket 4.2 00:10:11 10° N 00:16:06 46° E 00:21:55 10° SSE
Cosmos 1727 Rocket 4.3 00:13:02 10° SSE 00:18:44 40° E 00:24:24 10° NNE
Cosmos 1939 Rocket 3.7 00:18:35 15° ESE 00:21:05 29° ENE 00:24:32 10° NNE
Lacrosse 5 rocket 1.2 00:19:46 10° NW 00:23:37 87° SW 00:27:16 13° SE
Envisat 3.5 00:20:24 10° S 00:25:25 62° W 00:30:28 10° NNW
FengYun 1-2 T 4.3 00:20:34 10° SSE 00:26:13 84° WSW 00:31:52 10° NNW
Cosmos 1934 Rocket 4.0 00:20:01 10° N 00:26:23 90° ENE 00:32:46 10° S
OAO 2 Rocket 3.4 00:21:41 10° W 00:26:58 82° S 00:30:11 24° ESE
Cosmos 1812 Rocket 4.0 00:24:27 10° SSE 00:28:30 37° E 00:32:35 10° NNE
NOSS 3-2 (C) 4.1 00:26:50 10° SSE 00:31:32 28° ESE 00:33:05 25° E
Shenzhou-11 Module 3.9 00:31:09 10° NW 00:33:04 17° N 00:33:22 16° N
Meteor 1-11 4.2 00:27:48 10° N 00:33:34 69° E 00:39:20 10° SSE
Cosmos 1328 3.9 00:30:57 10° N 00:34:55 78° W 00:38:50 10° S
YAOGAN 1 2.6 00:33:49 10° S 00:38:08 79° WSW 00:42:29 10° NNW
Delta 2 Rocket 3.4 00:34:55 10° SW 00:38:09 39° SSE 00:38:30 38° SE
EO 1 Delta rocket 3.7 00:33:36 10° SSE 00:38:17 84° E 00:42:58 10° N
OAO 3 Copernicus 4.5 00:38:18 10° WSW 00:43:16 57° SSE 00:45:02 37° ESE
Cosmos 2297 4.4 00:39:30 10° SSE 00:44:03 31° ESE 00:44:03 31° ESE
CZ-4 R/B 2.5 00:40:29 10° S 00:44:27 46° W 00:48:30 10° NNW
Cosmos 2278 Rocket 2.4 00:39:14 10° SSW 00:44:53 73° WNW 00:50:34 10° NNE
Cosmos 1726 4.3 00:42:42 10° SW 00:45:52 28° WNW 00:49:03 10° NNW
Cosmos 1242 Rocket 4.2 00:49:07 10° NNW 00:52:31 35° W 00:55:52 10° SSW
Cosmos 44 4.3 00:49:04 10° S 00:52:18 29° SE 00:52:18 29° SE
CZ-2D R/B 3.2 00:53:36 15° S 00:56:40 83° W 01:00:32 10° NNW
Cosmos 839 Rocket 4.2 00:51:09 10° NNW 00:57:32 89° ENE 01:05:07 10° SSE
Cosmos 2100 Rocket 4.3 00:51:57 10° N 00:57:40 39° ENE 00:57:40 39° ENE
ADEOS Rocket 3.8 00:53:52 10° NNE 01:00:55 40° E 01:07:23 10° SSE
Meteosat 1 Rocket2 4.2 00:58:51 10° SW 01:01:24 25° S 01:01:24 25° S
Ariane Rocket 2.9 01:03:52 16° SSE 01:07:59 88° ENE 01:13:06 10° NNW
ATLAS 3B R/B 3.1 01:02:17 10° S 01:07:40 38° SE 01:07:40 38° SE
Lacrosse 5 3.5 01:06:51 10° NNW 01:09:38 20° NNE 01:09:38 20° NNE
Cosmos 1153 Rocket 4.3 01:04:52 10° N 01:11:01 85° E 01:17:10 10° S
SL-4 R/B 3.6 01:09:58 10° WNW 01:13:02 25° SW 01:13:42 23° SSW
CZ-3 Stage 3 2.7 01:09:52 10° WSW 01:12:18 25° SW 01:12:18 25° SW
NOAA 11 4.4 01:09:02 10° S 01:14:27 68° WSW 01:19:52 10° NNW
CENTAUR R/B 3.1 01:14:49 10° S 01:18:09 34° SSE 01:18:09 34° SSE
Cosmos 1833 Rocket 2.6 01:25:41 10° NNW 01:31:18 87° W 01:31:18 87° W
USA 238 DEB 4.4 01:26:38 10° SW 01:33:05 51° NW 01:38:54 14° NNE
USA 238 4.3 01:26:44 10° SW 01:33:11 51° NW 01:38:57 14° NNE
OAO 3 Rocket 3.7 01:28:35 10° W 01:32:38 58° WSW 01:32:38 58° WSW
USA 234 3.4 01:43:21 55° S 01:43:21 55° S 01:48:37 10° SSW
H-2A R/B 4.1 01:49:24 19° N 01:49:24 19° N 01:50:52 10° N
Cosmos 2082 Rocket 3.0 01:48:22 10° NNW 01:52:10 44° NNW 01:52:10 44° NNW
Cosmos 1459 Rocket 4.3 01:52:00 10° NNW 01:57:15 61° NW 01:57:15 61° NW
H-2A R/B 4.2 02:27:49 10° WSW 02:59:41 62° WSW 02:59:41 62° WSW
ATLAS 2AS CENTAUR R/B 3.4 08:59:26 56° ESE 08:59:41 56° ESE 09:07:32 10° NE
Milstar 3 Cent rocket 4.2 09:33:12 19° SSE 09:33:15 19° SSE 09:36:54 10° ESE
NOSS 0 Rocket 4.1 09:38:45 58° SSE 09:39:48 69° ESE 09:45:57 10° NNE
USA 267 4.3 09:34:40 10° NNE 09:39:31 30° NNW 09:39:31 30° NNW
Cosmos 2333 Rocket 3.3 09:43:31 33° N 09:43:31 33° N 09:46:44 10° NNE
Cosmos 2278 Rocket 3.9 09:37:08 10° N 09:42:07 31° ENE 09:47:04 10° ESE
Meteor 1-21 4.1 09:52:12 54° S 09:53:33 85° E 09:59:10 10° N
Cosmos 614 Rocket 4.2 09:57:08 35° S 09:59:17 69° ESE 10:04:29 10° NNE
BREEZE-M DEB (TANK) 2.8 10:01:21 55° E 10:01:21 55° E 10:03:26 10° ESE
PAYLOAD A 4.1 10:00:05 10° NNE 10:04:57 72° ESE 10:09:59 10° S
Cosmos 2181 Rocket 3.8 09:59:39 10° N 10:05:58 73° W 10:12:09 10° S
Cosmos 2219 Rocket 3.4 10:10:43 26° NNW 10:10:43 26° NNW 10:13:54 10° N
NOSS 3-4 (A) 3.2 10:08:37 48° SW 10:10:19 76° WNW 10:16:34 10° NNE
NOSS 3-4 (C) 3.2 10:08:37 47° SW 10:10:25 77° WNW 10:16:40 10° NNE
USA 234 3.4 10:04:21 10° SE 10:10:50 70° NE 10:15:59 17° NW
IDEFIX/ARIANE 42P 3.1 10:06:25 10° N 10:10:18 41° NW 10:10:18 41° NW
RESURS DK-1 4.4 10:09:42 10° SSE 10:13:15 28° ESE 10:16:48 10° NE
Meteor 1-31 Rocket 3.4 10:11:38 10° NNE 10:15:21 52° E 10:19:02 10° S
Cosmos 1707 3.1 10:13:13 10° S 10:17:04 65° E 10:20:58 10° NNE
Cosmos 2237 Rocket 2.1 10:15:09 35° SW 10:17:39 74° WNW 10:23:21 10° NNE
MSX 3.7 10:13:23 10° N 10:19:04 67° WNW 10:24:16 12° SSW
Cosmos 1470 2.9 10:18:33 10° N 10:22:27 72° E 10:26:19 10° SSE
CZ-4B R/B 3.9 10:24:10 10° NNE 10:28:11 80° ESE 10:32:23 10° S
Cosmos 1023 Rocket 4.4 10:24:18 10° SSW 10:29:29 89° WNW 10:34:40 10° NNE
COSMOS 2428 4.1 10:33:26 20° NW 10:33:26 20° NW 10:36:42 10° N
ATLAS 3B R/B 3.4 10:27:33 10° NNW 10:34:06 52° NE 10:40:48 10° SE
Cosmos 1980 3.9 10:32:22 30° WSW 10:34:45 48° WNW 10:40:13 10° N
Cosmos 676 Rocket 4.0 10:34:15 10° SSW 10:39:32 86° ESE 10:44:50 10° NNE
H-2A R/B 3.3 10:36:22 10° N 10:39:43 32° WNW 10:39:43 32° WNW
Meteor 1-4 Rocket 2.3 10:39:56 10° S 10:43:27 79° W 10:46:57 10° N
COSMO-SKYMED 1 4.3 10:39:40 10° SE 10:43:35 34° ENE 10:47:32 10° N
CENTAUR R/B 3.4 10:38:22 10° NNW 10:46:38 74° ENE 10:55:22 10° SE
Cosmos 1190 Rocket 4.3 10:45:31 15° SW 10:49:39 43° WNW 10:54:42 10° N
ATLAS 2AS CENTAUR R/B 3.7 10:46:57 22° W 10:51:03 35° NW 10:58:16 10° NNE
Cosmos 407 Rocket 4.0 10:48:36 21° WSW 10:51:21 36° WNW 10:56:04 10° N
IUS-9 SRM-1 3.7 10:51:11 13° SSW 10:52:35 19° SSE 10:56:19 10° ESE
Cosmos 2154 Rocket 3.9 10:47:20 10° SSW 10:53:30 74° W 10:59:43 10° N
Cosmos 2327 Rocket 4.5 10:47:59 10° SSW 10:54:08 58° W 11:00:14 10° N
ALOS 3.8 10:52:09 10° NNE 10:56:33 40° E 11:00:54 10° SSE
CZ-2C R/B 2.9 10:55:15 10° N 11:00:04 39° WNW 11:04:48 10° SW
USA 238 DEB 4.3 10:53:28 10° NW 11:00:07 39° WSW 11:06:54 10° S
USA 238 4.3 10:53:34 10° NW 11:00:13 40° WSW 11:07:00 10° S
Cosmos 1726 Rocket 3.6 10:57:51 10° N 11:02:11 81° E 11:06:29 10° S
Cosmos 2184 Rocket 4.5 10:57:45 10° SW 11:03:21 36° WNW 11:09:03 10° NNW
Cosmos 389 Rocket 3.5 11:03:43 22° W 11:04:20 23° WNW 11:07:09 10° NNW
Cosmos 2228 2.9 11:00:47 10° N 11:05:03 86° W 11:09:17 10° S
SL-16 R/B 2.1 11:04:40 10° SSW 11:10:18 73° WNW 11:15:59 10° NNE
Cosmos 292 Rocket 4.4 11:06:37 10° NW 11:10:52 32° W 11:15:07 10° SSW
Okean O Rocket 2.3 11:06:45 10° NNE 11:11:05 58° E 11:15:22 10° S
Cosmos 44 3.0 11:08:20 10° NW 11:12:37 61° WSW 11:16:51 10° SSE
Cosmos 1437 Rocket 2.6 11:09:59 10° S 11:13:46 83° W 11:17:34 10° N
Cosmos 921 Rocket 4.2 11:11:24 10° NW 11:14:35 21° W 11:17:43 10° SW
Meteor 1-16 Rocket 4.0 11:10:34 10° N 11:15:54 82° W 11:21:17 10° S
CZ-4B R/B 3.8 11:13:11 10° NNW 11:16:26 24° WNW 11:19:33 10° SW
Cosmos 1850 Rocket 4.3 11:12:27 10° S 11:17:36 70° ESE 11:22:45 10° NNE
Cosmos 2341 Rocket 4.0 11:11:33 10° S 11:17:48 82° W 11:24:04 10° N
PSLV R/B 2.6 11:16:03 17° WSW 11:17:57 67° NNW 11:20:34 10° ENE
FENGYUN 3A 4.1 11:13:36 10° NNE 11:19:02 69° E 11:24:26 10° S
Nadezhda 3 Rocket 4.1 11:12:57 10° NNW 11:19:11 61° W 11:25:23 10° S
Cosmos 2058 Rocket 3.2 11:14:57 10° N 11:19:23 82° E 11:23:49 10° S
PSLV R/B 4.3 11:19:17 10° N 11:22:40 34° WNW 11:26:01 10° SW
KORONAS-FOTON 3.9 11:19:03 10° S 11:22:48 78° E 11:26:35 10° N
Cosmos 2278 Rocket 2.9 11:21:09 10° NW 11:26:06 32° WSW 11:31:02 10° SSW
Cosmos 2297 4.1 11:20:27 10° NNW 11:26:12 71° ENE 11:31:53 10° SSE
Cosmos 1953 3.2 11:24:31 10° NNW 11:27:57 27° W 11:31:19 10° SSW
METEOR-M 4.2 11:24:16 10° NNE 11:29:37 87° WNW 11:34:57 10° SSW
SKYMED 2 3.6 11:27:14 10° S 11:31:31 62° W 11:35:50 10° NNW
OE (NEXTSAT) 4.3 11:30:29 10° WNW 11:34:00 77° SW 11:37:30 10° SE
Cosmos 1356 3.7 11:31:04 10° NNW 11:34:22 44° W 11:37:40 10° SSW
Meteor 2-5 Rocket 3.8 11:30:14 10° SSW 11:35:57 72° W 11:41:49 10° N
Iridium 51 4.1 11:36:03 10° N 11:39:48 86° E 11:43:18 10° S
Cosmos 1892 Rocket 4.5 11:36:49 10° SW 11:40:38 28° WNW 11:44:28 10° NNW
Helios 1A Rocket 3.2 11:37:11 10° N 11:41:11 48° WNW 11:45:11 10° SSW
